#timestamp,LO_Frequency,Hit,StdDev 
1596254415.4,286046996.8,N
1596254435.2,286046998.0,N
1596254455.1,286046997.9,N
1596254456.0,286046997.9,N
1596254475.8,286046997.0,N
1596254495.6,286046997.7,N
1596254515.5,286046997.3,N
1596254535.3,286046996.1,Y
1596254555.2,286046996.8,P
1596254575.9,286046997.1,P
1596254595.7,286046996.7,P
1596254615.6,286046997.5,Y
1596254635.4,286046998.3,P
1596254655.2,286046999.0,N
1596254675.1,286046997.0,P
1596254676.0,286046997.0,Y
1596254695.8,286046999.7,P
1596254715.7,286047002.4,N
1596254735.5,286047000.0,N
1596254755.4,286047000.2,N
1596254775.2,286046998.6,N
1596254795.0,286047000.5,N
1596254795.9,286047000.5,N
1596254815.8,286047001.1,N
1596254835.6,286047000.0,N
1596254855.4,286047001.9,N
1596254875.3,286047002.0,N
1596254895.1,286047002.4,N
1596254915.9,286046999.7,N
1596254935.7,286046998.1,N
1596254955.5,286047001.2,N
1596254975.4,286047002.8,N
1596254995.2,286047001.0,N
1596255015.1,286046999.7,N
1596255016.0,286046999.7,N
1596255035.8,286047002.1,N
1596255055.6,286047001.7,N
1596255075.5,286047000.0,N
1596255095.3,286046999.7,N
1596255115.1,286047000.3,N
1596255135.9,286047000.5,N
1596255155.7,286047002.7,N
1596255175.6,286047000.4,N
1596255195.4,286047000.0,N
1596255215.2,286047002.4,N
1596255235.1,286047002.2,N
1596255236.0,286047002.2,N
1596255255.8,286047001.4,N
1596255275.7,286047003.5,N
1596255295.5,286047003.5,N
1596255315.3,286047004.1,Y
1596255335.2,286046999.8,P
1596255355.0,286047000.5,N
1596255355.9,286047000.5,N
1596255375.8,286047000.5,N
1596255395.6,286047002.5,Y
1596255415.4,286047002.1,P
1596255435.3,286047000.1,N
1596255455.1,286047002.4,N
1596255475.9,286047002.5,N
1596255495.7,286047002.8,N
1596255515.5,286047000.1,N
1596255535.4,286047000.1,N
1596255555.2,286046999.9,N
1596255575.0,286046999.8,N
1596255576.0,286046999.8,N
1596255595.8,286046999.8,N
1596255615.6,286047000.2,N
1596255635.5,286047002.5,N
1596255655.3,286047001.6,N
1596255675.1,286047001.9,N
1596255695.9,286047001.8,N
1596255715.7,286047004.4,Y
1596255735.6,286046999.8,P
1596255755.4,286046999.7,N
1596255775.2,286046999.8,N
1596255795.1,286047002.4,Y
1596255796.0,286047002.4,P
1596255815.8,286047002.5,N
1596255835.7,286047002.3,N
1596255855.5,286047002.6,N
1596255875.3,286047002.2,N
1596255895.2,286047001.9,N
1596255915.0,286047002.2,N
1596255915.9,286047002.2,N
1596255935.8,286047002.4,Y
1596255955.6,286046998.5,P
1596255975.4,286047001.1,N
1596255995.3,286046998.2,N
1596256015.1,286047000.4,N
1596256035.8,286047001.0,N
1596256055.7,286047001.2,N
1596256075.5,286047000.5,N
1596256095.4,286046998.1,N
1596256115.2,286047000.7,N
1596256135.0,286047001.0,N
1596256135.9,286047001.0,N
1596256155.8,286047000.6,N
1596256175.6,286047001.1,N
1596256195.5,286047000.0,N
1596256215.3,286047000.0,N
1596256235.1,286047000.3,N
1596256255.9,286047000.6,N
1596256275.7,286047002.8,N
1596256295.5,286047000.8,N
1596256315.4,286047000.4,N
1596256335.2,286046999.9,N
1596256355.1,286046999.7,N
1596256356.0,286046999.7,N
1596256375.8,286047002.8,N
1596256395.6,286047002.0,N
1596256415.5,286047001.5,N
1596256435.3,286046999.7,N
1596256455.2,286047000.1,N
1596256475.9,286047002.3,N
1596256495.7,286047002.8,N
1596256515.6,286047002.8,N
1596256535.4,286047002.2,N
1596256555.3,286047001.8,N
1596256575.1,286047001.6,N
1596256576.0,286047001.6,N
1596256595.8,286047004.2,Y
1596256615.7,286047002.7,P
1596256635.5,286047000.5,N
1596256655.3,286047000.7,N
1596256675.2,286047001.2,N
1596256695.0,286046998.6,N
1596256695.9,286046998.6,N
1596256715.8,286047000.5,N
1596256735.6,286047000.5,N
1596256755.4,286046999.8,N
1596256775.3,286047002.0,N
1596256795.1,286047002.4,N
1596256815.9,286046999.9,N
1596256835.7,286047002.7,N
1596256855.5,286047002.6,N
1596256875.4,286046999.9,N
1596256895.2,286047000.8,N
1596256915.0,286047001.1,N
1596256916.0,286047001.1,N
1596256935.8,286047000.5,N
1596256955.6,286046999.9,N
1596256975.5,286047002.4,N
1596256995.3,286047001.6,N
1596257015.1,286047002.7,N
1596257035.9,286047002.1,N
1596257055.7,286047004.2,Y
1596257075.6,286047002.6,P
1596257095.4,286047002.8,P
1596257115.2,286047002.2,N
1596257135.1,286047000.3,N
1596257136.0,286047000.3,N
1596257155.8,286046998.6,N
1596257175.7,286046998.3,N
1596257195.5,286047000.4,N
1596257215.3,286046998.2,N
1596257235.2,286046999.2,N
1596257255.0,286046999.3,N
1596257255.9,286046999.3,N
1596257275.7,286046998.3,N
1596257295.6,286046998.6,N
1596257315.4,286047000.8,N
1596257335.3,286047000.4,N
1596257355.1,286046999.8,N
1596257356.0,286046999.8,N
1596257375.8,286047000.6,N
1596257395.7,286047002.7,N
1596257415.5,286047002.0,N
1596257435.4,286047001.8,N
1596257455.2,286047002.3,N
1596257475.0,286047000.5,N
1596257475.9,286047000.5,N
1596257495.8,286047002.7,N
1596257515.6,286047000.7,N
1596257535.4,286046999.9,N
1596257555.3,286046999.8,N
1596257575.1,286047000.1,N
1596257595.9,286046999.8,N
1596257615.7,286046998.8,N
1596257635.5,286046998.8,N
1596257655.4,286047001.2,N
1596257675.2,286046998.5,N
1596257695.1,286046998.5,N
1596257696.0,286046998.5,N
1596257715.8,286046998.5,N
1596257735.6,286046998.7,N
1596257755.5,286046997.1,N
1596257775.3,286046997.7,N
1596257795.1,286046997.0,N
1596257815.9,286046997.0,N
1596257835.7,286046999.2,N
1596257855.6,286046996.7,N
1596257875.4,286046996.9,N
1596257895.2,286046997.2,N
1596257915.1,286046995.5,N
1596257916.0,286046995.5,N
1596257935.8,286046996.2,N
1596257955.7,286046996.1,N
1596257975.5,286046995.8,N
1596257995.3,286046995.1,N
